Location: ??????
(41.3747°N, 22.5491°E)
Time: 04:39:09
(UTC+00:00)

CZ-3B R/B - Pass Details

Date: 01 December 2020
Orbit: 267 x 17441 km, 54.8° (Epoch: 20 January)

Event Time Altitude Azimuth Distance (km) Brightness Sun altitude
Rises 15:55:29 0° 214° (SW) 4,369 7.4 -10.1°
Reaches altitude 10° 15:59:47 10° 207° (SSW) 2,222 5.6 -10.9°
Maximum altitude 16:03:28 33° 141° (SE) 681 2.1 -11.5°
Enters shadow 16:04:33 21° 90° (E) 816 2.1 -11.7°
